Tracking 18980 objects as of 20-Feb-2018
HD Live streaming from Space Station
objects crossing your sky now

USA 81

Track USA 81 now!
10-day predictions
USA 81 is classified as:


NORAD ID: 21949
Int'l Code: 1992-023A
Perigee: 791.7 km
Apogee: 796.7 km
Inclination: 85.0 °
Period: 100.6 minutes
Semi major axis: 7165 km
RCS: Unknown
Launch date: April 25, 1992
Source: United States (US)
Launch site: AIR FORCE WESTERN TEST RANGE (AFWTR)
aabbcc
Your satellite tracking list
Your tracking list is empty




NASA's NSSDC Master Catalog

Two Line Element Set (TLE):
1 21949U 92023A   18038.14690775 0.00000030  00000-0  11331-4 0    09
2 21949  85.0067  33.1415 0003500  65.0822 294.9177 14.31400183    05
Source of the keplerian elements: McCants